Location: Sagn�
(15.2046°N, 12.7898°W)
Time: 12:15:02
(UTC+00:00)

Star 48 S/N 10017-12 - Pass Details

Date: 08 May 2021
Orbit: 360 x 33259 km, 23.8° (Epoch: 14 June)

Event Time Altitude Azimuth Distance (km) Brightness Sun altitude
Rises 19:44:55 0° 289° (WNW) 2,651 10.3 -8.6°
Reaches altitude 10° 19:47:11 10° 290° (WNW) 1,408 8.1 -9.1°
Maximum altitude 19:49:35 89° 359° (N) 363 3.4 -9.7°
Enters shadow 19:51:49 15° 109° (ESE) 1,320 5.6 -10.2°
